La Junta, CO

5:53 AM MDT on May 21, 2018 (GMT -0600)
La Junta Municipal

Weather History for KLHX - April, 2014

Change the Weather History Date:

Thursday, April 3, 2014

  Actual Average Record
Temperature  
Mean Temperature 39 °F 49 °F  
Max Temperature 45 °F 65 °F 83 °F (1985)
Min Temperature 33 °F 33 °F 15 °F (1975)
Degree Days  
Heating Degree Days 26 16  
Month to date heating degree days 54 49  
Since 1 July heating degree days 4777 4797  
Moisture  
Dew Point 32 °F    
Average Humidity 79    
Maximum Humidity 96    
Minimum Humidity 62    
Precipitation  
Precipitation 0.34 in 0.03 in 0.86 in (1993)
Month to date precipitation 0.34 0.09  
Year to date precipitation 1.08 1.55  
Sea Level Pressure  
Sea Level Pressure 29.85 in    
Wind  
Wind Speed 11 mph (NNW)    
Max Wind Speed 23 mph    
Max Gust Speed 27 mph    
Visibility 5 miles    
Events Fog , Snow    
T = Trace of Precipitation, MM = Missing Value Source: NWS Daily Summary

Daily Weather History Graph

Daily Weather History Graph

Search for Another Location

Airport or City:

Astronomy

Apr. 03, 2014 Rise Set
Actual Time 6:36 AM MDT 7:19 PM MDT
Civil Twilight 6:09 AM MDT 7:45 PM MDT
Nautical Twilight 5:38 AM MDT 8:17 PM MDT
Astronomical Twilight 5:05 AM MDT 8:49 PM MDT
Moon 9:10 AM MDT (4/3) 11:37 PM MDT (4/3)
Length of Visible Light 13h 36m
Length of Day
12h 42m
Waxing Crescent, 18% of the Moon is Illuminated
Apr 3
Waxing Crescent
Apr 7
First Quarter
Apr 15
Full
Apr 22
Last Quarter
Apr 29
New

Hourly Weather History & Observations

Time (MDT) Temp. Windchill Dew Point Humidity Pressure Visibility Wind Dir Wind Speed Gust Speed Precip Events Conditions
12:53 AM 41.0 °F 33.1 °F 30.0 °F 65% 29.67 in 10.0 mi NE 15.0 mph - N/A   Overcast
1:53 AM 39.0 °F 31.8 °F 28.9 °F 67% 29.67 in 10.0 mi East 11.5 mph - N/A   Overcast
2:16 AM 39.0 °F 31.4 °F 28.9 °F 67% 29.75 in 10.0 mi East 12.7 mph - N/A   Overcast
2:53 AM 39.9 °F 33.4 °F 28.9 °F 65% 29.67 in 10.0 mi ENE 10.4 mph - N/A   Overcast
3:53 AM 39.0 °F 34.8 °F 28.9 °F 67% 29.66 in 10.0 mi NE 5.8 mph - N/A   Overcast
4:53 AM 37.9 °F 33.5 °F 28.9 °F 70% 29.67 in 9.0 mi NNE 5.8 mph - N/A   Overcast
5:53 AM 37.0 °F 32.4 °F 28.9 °F 73% 29.69 in 9.0 mi North 5.8 mph - N/A   Overcast
6:06 AM 37.0 °F 32.4 °F 28.9 °F 73% 29.77 in 9.0 mi NNW 5.8 mph - N/A   Overcast
6:53 AM 37.0 °F 31.6 °F 32.0 °F 82% 29.70 in 6.0 mi North 6.9 mph - 0.00 in   Overcast
7:39 AM 37.0 °F 31.0 °F 34.0 °F 89% 29.79 in 5.0 mi NNW 8.1 mph - 0.00 in   Overcast
7:53 AM 37.0 °F 30.4 °F 34.0 °F 89% 29.74 in 5.0 mi NW 9.2 mph - 0.00 in   Overcast
8:25 AM 37.0 °F 29.8 °F 34.0 °F 89% 29.80 in 4.0 mi North 10.4 mph - 0.01 in Snow Light Snow
8:49 AM 35.6 °F 28.0 °F 33.8 °F 93% 29.79 in 2.5 mi NNW 10.4 mph - 0.03 in Snow Light Snow
8:50 AM 36.0 °F 29.0 °F 34.0 °F 93% 29.75 in 2.5 mi NNW 9.2 mph - 0.03 in Snow Light Snow
9:01 AM 35.1 °F 27.4 °F 33.1 °F 92% 29.79 in 1.8 mi North 10.4 mph - 0.02 in Snow Light Snow
9:32 AM 34.0 °F 25.5 °F 33.1 °F 96% 29.80 in 1.2 mi NNW 11.5 mph - 0.04 in Snow Light Snow
9:48 AM 35.6 °F 27.5 °F 33.8 °F 93% 29.81 in 3.0 mi NNW 11.5 mph - 0.04 in Snow Light Snow
9:53 AM 35.1 °F 25.9 °F 33.1 °F 92% 29.77 in 2.5 mi NNW 13.8 mph - 0.04 in Snow Light Snow
10:05 AM 34.0 °F 24.6 °F 33.1 °F 96% 29.80 in 1.2 mi North 13.8 mph - 0.01 in Snow Light Snow
10:15 AM 34.0 °F 24.2 °F 32.0 °F 92% 29.81 in 0.8 mi North 15.0 mph - 0.02 in Snow Light Snow
10:41 AM 33.1 °F 24.4 °F 32.0 °F 96% 29.82 in 0.8 mi North 11.5 mph - 0.04 in Snow Light Snow
10:53 AM 33.1 °F 25.5 °F 32.0 °F 96% 29.81 in 0.5 mi North 9.2 mph - 0.06 in Fog , Snow Snow
11:09 AM 33.1 °F 25.5 °F 32.0 °F 96% 29.83 in 0.5 mi North 9.2 mph - 0.02 in Fog , Snow Snow
11:53 AM 33.1 °F 26.9 °F 32.0 °F 96% 29.86 in 0.2 mi NW 6.9 mph - 0.09 in Fog , Snow Heavy Snow
12:09 PM 33.1 °F 25.5 °F 32.0 °F 96% 29.86 in 0.5 mi NNW 9.2 mph - 0.02 in Fog , Snow Snow
12:43 PM 33.1 °F 26.9 °F 32.0 °F 96% 29.88 in 0.5 mi NNW 6.9 mph - 0.06 in Fog , Snow Snow
12:53 PM 33.1 °F 26.1 °F 32.0 °F 96% 29.89 in 0.8 mi North 8.1 mph - 0.07 in Snow Light Snow
1:00 PM 33.1 °F 25.5 °F 32.0 °F 96% 29.89 in 1.0 mi North 9.2 mph - 0.01 in Snow Light Snow
1:13 PM 33.1 °F 25.5 °F 32.0 °F 96% 29.91 in 0.8 mi NNW 9.2 mph - 0.02 in Snow Light Snow
1:53 PM 34.0 °F 23.0 °F 32.0 °F 92% 29.94 in 1.0 mi North 18.4 mph - 0.05 in Snow Light Snow
2:02 PM 34.0 °F 24.2 °F 32.0 °F 92% 29.94 in 1.0 mi North 15.0 mph - 0.00 in Snow Light Snow
2:16 PM 34.0 °F 25.5 °F 32.0 °F 92% 29.96 in 2.0 mi NNW 11.5 mph - 0.00 in Snow Light Snow
2:20 PM 34.0 °F 25.5 °F 33.1 °F 96% 29.96 in 3.0 mi North 11.5 mph - 0.00 in Snow Light Snow
2:39 PM 36.0 °F 29.0 °F 33.1 °F 89% 29.96 in 8.0 mi North 9.2 mph - 0.00 in   Overcast
2:53 PM 37.0 °F 31.0 °F 33.1 °F 86% 29.96 in 10.0 mi North 8.1 mph - 0.00 in   Mostly Cloudy
3:53 PM 41.0 °F 33.9 °F 30.0 °F 65% 29.96 in 10.0 mi North 12.7 mph - N/A   Partly Cloudy
4:53 PM 43.0 °F 36.0 °F 30.9 °F 62% 29.97 in 10.0 mi North 13.8 mph - N/A   Clear
5:53 PM 44.1 °F 39.0 °F 32.0 °F 63% 29.98 in 10.0 mi WNW 9.2 mph - N/A   Partly Cloudy
6:53 PM 43.0 °F 38.8 °F 33.1 °F 68% 30.01 in 10.0 mi WNW 6.9 mph - N/A   Clear
7:53 PM 39.9 °F 33.4 °F 33.1 °F 77% 30.04 in 10.0 mi WSW 10.4 mph - N/A   Partly Cloudy
9:53 PM 36.0 °F 27.5 °F 32.0 °F 86% 30.10 in 10.0 mi West 12.7 mph - N/A   Clear
10:53 PM 35.1 °F 25.9 °F 30.0 °F 82% 30.13 in 10.0 mi West 13.8 mph - N/A   Clear
11:53 PM 34.0 °F 25.5 °F 28.9 °F 82% 30.15 in 10.0 mi WNW 11.5 mph - N/A   Clear